Regional Weather Roundup
Issued by NWS

Home | Current Version | Previous Version | Graphics & Text | Print | Product List | Glossary On
Versions: 1 2 3 4 5 6 7 8 9 10 11 12 13 14 15 16 17 18 19 20 21 22 23 24 25 26 27 28 29 30 31 32 33 34 35 36 37 38 39 40 41 42 43 44 45 46 47 48 49 50
000
ASUS45 KBOU 261407
RWRCO

WEATHER ROUNDUP FOR COLORADO
NATIONAL WEATHER SERVICE DENVER/BOULDER CO
700 AM MST FRI DEC 26 2014

NOTE: "FAIR" INDICATES FEW OR NO CLOUDS BELOW 12000 FEET WITH NO
SIGNIFICANT WEATHER AND/OR OBSTRUCTIONS TO VISIBILITY.

COZ001>005-013-030-031-261500-
...NORTHWEST COLORADO...

CITY           SKY/WX    TMP DP  RH WIND       PRES   REMARKS
CRAIG          CLOUDY    17  13  84 W10       29.78R WCI   5
HAYDEN         CLOUDY    16  10  79 W10       29.75R WCI   3
MEEKER         LGT SNOW  17  13  84 W3        29.76R FOG
MOUNT WERNER   NOT AVBL
STEAMBOAT SPGS NOT AVBL
WALDEN         NOT AVBL
$$

COZ006>008-011-261500-
...WEST CENTRAL VALLEYS...

CITY           SKY/WX    TMP DP  RH WIND       PRES   REMARKS
GRAND JUNCTION LGT SNOW  24  24 100 N3        29.77S FOG
MONTROSE       LGT SNOW  24  22  91 CALM      29.77R FOG
EAGLE          CLOUDY    21  21 100 W3        29.74R
RIFLE          CLOUDY    22  20  92 CALM      29.76R
DELTA          CLOUDY    27  24  89 CALM      29.77R
NUCLA          CLOUDY    21  19  93 E5        29.78R WCI  15
$$

COZ017>023-064>068-261500-
...SOUTHWEST COLORADO...

CITY           SKY/WX    TMP DP  RH WIND       PRES   REMARKS
DURANGO        FLURRIES  21  19  92 SW3       29.68R
CORTEZ         PTCLDY    10   7  87 CALM      29.72R FOG
PAGOSA SPRINGS LGT SNOW  18  17  95 CALM      29.66S
TELLURIDE      CLOUDY    13   7  76 SE3       29.65R
WOLF CREEK PAS NOT AVBL
$$

COZ009-010-012-014-032>034-037-058>063-261500-
...CENTRAL COLORADO...

CITY           SKY/WX    TMP DP  RH WIND       PRES   REMARKS
ASPEN          LGT SNOW  18  16  92 N5        29.67R FOG     WCI  11
BUENA VISTA    LGT SNOW  10   6  87 SW3       29.74R
COPPER MTN     NOT AVBL
BERTHOUD PASS  NOT AVBL
COTTONWOOD PAS NOT AVBL
GUNNISON       CLOUDY    12   9  85 CALM      29.71R
KREMMLING      NOT AVBL
LEADVILLE      LGT SNOW   4   1  88 S3        29.64R FOG
SALIDA         CLOUDY    18  15  90 E6        29.83R WCI  10
SUNLIGHT       NOT AVBL
WILKERSON PASS NOT AVBL
$$

COZ069>075-261500-
...SAN LUIS VALLEY/SANGRE DE CRISTO MOUNTAINS...

CITY           SKY/WX    TMP DP  RH WIND       PRES   REMARKS
ALAMOSA        PTCLDY    17  13  84 SE13      29.66R WCI   4
LA VETA PASS   NOT AVBL
SAGUACHE       NOT AVBL
$$

COZ035-036-038>040-261500-
...NORTHERN COLORADO FRONT RANGE...

CITY           SKY/WX    TMP DP  RH WIND       PRES   REMARKS
DENVER INTL AP LGT SNOW  13  11  92 N6        29.91R FOG     WCI   4
DMNS CITY PARK   N/A     16  14  93 NE3       29.93R
AURORA         FLURRIES  12  11  95 N5        29.91R WCI   4
FRONT RANGE AP NOT AVBL
ERIE MUNI ARPT NOT AVBL
BOULDER MUN AP NOT AVBL
CENTENNIAL     LGT SNOW  14  12  92 NE5       29.88R FOG     WCI   6
BROOMFIELD     LGT SNOW  16  14  93 N5        29.89S WCI   9
FORT COLLINS   MOCLDY    18  12  79 E5        29.96R WCI  11
LONGMONT       NOT AVBL
$$

COZ041-046-047-076>085-087-088-261500-
...PIKES PEAK/PALMER DIVIDE AND SOUTHERN FOOTHILLS...

CITY           SKY/WX    TMP DP  RH WIND       PRES   REMARKS
COLO. SPRINGS  FLURRIES  17  10  74 N8        29.86R WCI   7
A. F. ACADEMY  CLOUDY    15   9  77 N13       29.83R WCI   0
ELLICOTT       NOT AVBL
FALCON         NOT AVBL
FORT CARSON    CLOUDY    18  10  70 NE8       29.86R WCI   8
LIMON          LGT SNOW  17  15  92 N15       29.90R FOG     WCI   2
MONUMENT HILL  NOT AVBL
TRINIDAD       LGT SNOW  21  18  88 N9        29.85R FOG     WCI  11
$$

COZ042>045-048>051-090-091-261500-
...NORTHEAST COLORADO...

CITY           SKY/WX    TMP DP  RH WIND       PRES   REMARKS
GREELEY ARPT   MOCLDY    18  10  73 N5        29.95R WCI  11
AKRON          FLURRIES  17  15  92 NE14      29.94R WCI   3
BURLINGTON     LGT SNOW  22  19  89 N16       29.92R FOG     WCI   8
WRAY           FLURRIES  23  20  90 N14       29.97R WCI  11
STERLING       NOT AVBL
HOLYOKE        NOT AVBL
FORT MORGAN    FLURRIES  19  16  88 N9        29.96R WCI   7
$$

COZ086-089-092>099-261500-
...SOUTHEAST COLORADO...

CITY           SKY/WX    TMP DP  RH WIND       PRES   REMARKS
PUEBLO         CLOUDY    22  14  71 NE10      29.92R WCI  11
LA JUNTA       LGT SNOW  23  20  88 N10       29.93R FOG     WCI  12
LAMAR          LGT SNOW  25  22  88 NE12      29.91R FOG     WCI  14
SPRINGFIELD      N/A     24  22  91 N16       29.87R WCI  11
$$



USA.gov is the U.S. government's official web portal to all federal, state and local government web resources and services.